Hourly Data Report for October 23, 2020

VICTORIA UNIVERSITY CS
BRITISH COLUMBIA
Current Station Operator: ECCC - MSC

48°27'25.200" N
123°18'16.600" W
60.10 m
1018598
71783
WYJ

Download Data

Hourly Data (October 2020)
Hourly Data Report for October 23, 2020
TIME
LST
Temp Definition
°C
Dew Point Definition
°C
Rel Hum Definition
%
Precip. Amount Definition
mm

Wind Dir Definition
10's deg

Wind Spd Definition
km/h
Visibility Definition
km
Stn Press Definition
kPa
Hmdx Definition


Wind Chill Definition


Weather Definition


00:00 5.1 5.0 99 0.0 3 1   101.84     LegendNANA
01:00 5.1 5.0 99 0.0 0 1   101.71     LegendNANA
02:00 6.6 6.5 99 0.0 16 1   101.56     LegendNANA
03:00 6.7 5.2 90 0.0 11 2   101.41     LegendNANA
04:00 6.7 4.8 88 0.0 10 3   101.28     LegendNANA
05:00 6.4 4.7 89 0.0 10 2   101.20     LegendNANA
06:00 5.6 5.1 97 1.3 4 1   101.05     LegendNANA
07:00 5.4 4.7 95 0.4 5 4   100.95     LegendNANA
08:00 6.0 5.8 99 0.6 9 4   100.78     LegendNANA
09:00 6.2 6.0 98 0.4 13 3   100.63     LegendNANA
10:00 6.5 6.4 99 1.3 12 3   100.50     LegendNANA
11:00 6.9 6.6 98 0.6 11 2   100.38     LegendNANA
12:00 7.0 6.7 98 0.6 11 3   100.29     LegendNANA
13:00 6.8 6.6 99 1.6 8 7   100.27     LegendNANA
14:00 6.6 6.4 99 1.4 5 5   100.28     LegendNANA
15:00 6.2 6.1 99 0.8 2 10   100.32     LegendNANA
16:00 5.7 5.6 99 0.5 2 13   100.36     LegendNANA
17:00 5.5 5.3 99 0.5 2 13   100.42     LegendNANA
18:00 5.9 5.2 95 0.2 2 11   100.51     LegendNANA
19:00 5.9 5.4 97 0.3 34 8   100.59     LegendNANA
20:00 5.8 5.2 96 0.0 33 6   100.63     LegendNANA
21:00 6.0 5.2 95 0.0 34 7   100.74     LegendNANA
22:00 5.9 5.0 95 0.0 30 6   100.83     LegendNANA
23:00 6.7 4.9 88 0.0 34 14   100.88     LegendNANA

Notes on Data Quality.

Legend

  • E = Estimated
  • M = Missing
  • NA = Not Available*
  • [empty] = Indicates an unobserved value
Date modified: